Hourly Data Report for January 07, 2018

All times are specified in Local Standard Time (LST). Add 1 hour to adjust for Daylight Saving Time where and when it is observed.

BARRIE-ORO
ONTARIO

44°29'00.000" N
79°33'00.000" W
289.00 m
6117700
71314
XBI

Download Data

Hourly Data (January 2018)
Hourly Data Report for January 7, 2018
Temp Definition
°C
Dew Point Temp Definition
°C
Rel Hum Definition
%
Wind Dir Definition
10's deg

Wind Spd Definition
km/h
Visibility Definition
km
Stn Press Definition
kPa
Hmdx Definition


Wind Chill Definition


Weather Definition


TIME
00:00 -23.1 -25.7 79 0 1   99.62   -24 LegendNANA
01:00 -20.9 -23.1 83 14 3   99.55   -24 LegendNANA
02:00 -20.5 -23.0 80 18 4   99.50   -24 LegendNANA
03:00 -20.8 -23.2 81 0 1   99.48   -22 LegendNANA
04:00 -20.1 -22.6 81 29 1   99.46   -21 LegendNANA
05:00 -21.1 -23.5 81 19 2   99.40   -23 LegendNANA
06:00 -16.9 -19.9 78 20 11   99.36   -24 LegendNANA
07:00 -16.3 -20.0 73 19 14   99.34   -24 LegendNANA
08:00 -16.8 -21.6 66 20 11   99.26   -24 LegendNANA
09:00 -16.3 -21.2 66 19 10   99.17   -23 LegendNANA
10:00 -14.8 -19.5 67 21 16   99.12   -23 LegendNANA
11:00 -13.8 -17.7 73 18 18   98.99   -22 LegendNANA
12:00 -12.3 -16.6 70 20 20   98.81   -21 LegendNANA
13:00 -11.9 -16.5 69 19 17   98.60   -20 LegendNANA
14:00 -11.6 -16.3 68 19 18   98.46   -19 LegendNANA
15:00 -10.9 -16.1 65 19 14   98.29   -18 LegendNANA
16:00 -10.3 -15.7 64 19 15   98.21   -17 LegendNANA
17:00 -9.9 -15.1 66 20 14   98.17   -16 LegendNANA
18:00 -9.8 -11.6 87 20 13   98.12   -16 LegendNANA
19:00 -9.1 -10.8 88 20 13   98.07   -15 LegendNANA
20:00 -8.1 -10.1 86 20 8   98.03   -12 LegendNANA
21:00 -6.9 -10.4 76 20 7   97.97   -10 LegendNANA
22:00 -6.2 -10.1 74 20 11   97.92   -11 LegendNANA
23:00 -5.5 -9.6 73 20 5   97.87   -8 LegendNANA

Notes on Data Quality.

Legend

  • E = Estimated
  • M = Missing
  • NA = Not Available
  • ‡ = Partner data that is not subject to review by the National Climate Archives
Date modified: